Regional Weather Roundup
Issued by NWS

Home | Current Version | Previous Version | Text Only | Print | Product List | Glossary On
Versions: 1 2 3 4 5 6 7 8 9 10 11 12 13 14 15 16 17 18 19 20 21 22 23 24 25 26 27 28 29 30 31 32 33 34 35 36 37 38 39 40 41 42 43 44 45 46 47 48 49 50
842
ASUS44 KJAN 091810
RWRMS

MISSISSIPPI HOURLY WEATHER ROUNDUP
NATIONAL WEATHER SERVICE JACKSON MS
1200 PM CST TUE FEB 09 2016

NOTE: "FAIR: INDICATES FEW OR NO CLOUDS BELOW 12,000 FEET WITH NO
SIGNIFICANT WEATHER AND/OR OBSTRUCTIONS TO VISIBILITY.

MSZ001>002-007>008-010>013-018>021-025>028-034>036-091900-
NORTHWEST MISSISSIPPI

CITY           SKY/WX    TMP DP  RH WIND       PRES   REMARKS
CLEVELAND      FAIR      45  23  41 NW21      30.07S
GREENWOOD      MOSUNNY   45  16  31 W16G22    30.06F
6HR MIN TEMP:  32; 6HR MAX TEMP:  45;

GREENVILLE     LGT RAIN  47  19  33 NW20G25   30.07F
6HR MIN TEMP:  34; 6HR MAX TEMP:  47; 6HR PCP: TRACE;

OLIVE BRANCH   PTSUNNY   34  16  47 NW18G25   30.02R WCI  23
OXFORD         FAIR      37  10  32 NW18G29   30.02S WCI  27
TUNICA         CLEAR     41  18  38 NW23G30   30.05S
$$

MSZ003>006-009-014>017-022>024-029>033-037>039-091900-
NORTHEAST MISSISSIPPI

CITY           SKY/WX    TMP DP  RH WIND       PRES   REMARKS
COLUMBUS AFB   MOSUNNY   43  14  31 W14G31    29.98F
6HR MIN TEMP:  35; 6HR MAX TEMP:  43;

CORINTH        CLOUDY    34  14  44 NW18      29.98R WCI  23
GOLDN TRIANGLE MOSUNNY   43  16  33 W9G18     29.98F
STARKVILLE     FAIR      43  12  28 NW12G23   30.00F
TUPELO         MOSUNNY   40  10  29 W16G28    29.98F WCI  31
6HR MIN TEMP:  34; 6HR MAX TEMP:  40;

$$

MSZ040-058-091900-
CENTRAL MISSISSIPPI

CITY           SKY/WX    TMP DP  RH WIND       PRES   REMARKS
JACKSON INTL   SUNNY     48  17  29 NW12G25   30.06F
6HR MIN TEMP:  34; 6HR MAX TEMP:  48;

JACKSON HAWKNS SUNNY     47  17  30 NW21G26   30.08F
6HR MIN TEMP:  33; 6HR MAX TEMP:  47;

MERIDIAN KEY   SUNNY     48  16  27 W21G29    30.01F
6HR MIN TEMP:  29; 6HR MAX TEMP:  48; 6HR PCP: TRACE;

MERIDIAN NAS   SUNNY     46  13  26 W20G29    30.00F
6HR MIN TEMP:  30; 6HR MAX TEMP:  46;

VICKSBURG        N/A    N/A N/A N/A MISG      30.12F
$$

MSZ059>079-091900-
SOUTH MISSISSIPPI

CITY           SKY/WX    TMP DP  RH WIND       PRES   REMARKS
BROOKHAVEN     FAIR      48  21  34 W10G21    30.10F
HATTIESBURG    SUNNY     50  16  25 W13G24    30.08F
6HR MIN TEMP:  35; 6HR MAX TEMP:  51;

MCCOMB         SUNNY     50  16  25 W13G29    30.10F
6HR MIN TEMP:  32; 6HR MAX TEMP:  51;

NATCHEZ        SUNNY     50  18  27 W17G26    30.15F
6HR MIN TEMP:  36; 6HR MAX TEMP:  50;

PINE BELT      SUNNY     48  16  27 NW10G21   30.07F
6HR MIN TEMP:  30; 6HR MAX TEMP:  48;

$$

MSZ080>082-091900-
COASTAL MISSISSIPPI

CITY           SKY/WX    TMP DP  RH WIND       PRES   REMARKS
BAY ST LOUIS   SUNNY     52   3  14 NW12G18   30.11F
BILOXI         SUNNY     53  18  24 NW13G22   30.08F
6HR MIN TEMP:  38; 6HR MAX TEMP:  54;

PASCAGOULA     SUNNY     53  17  24 NW15G21   30.08F
6HR MIN TEMP:  36; 6HR MAX TEMP:  53;

GULFPORT       SUNNY     52  16  24 W16G22    30.09F
6HR MIN TEMP:  37; 6HR MAX TEMP:  52;

$$




USA.gov is the U.S. government's official web portal to all federal, state and local government web resources and services.